Time,TemperatureF,DewpointF,PressureIn,WindDirection,WindDirectionDegrees,WindSpeedMPH,WindSpeedGustMPH,Humidity,HourlyPrecipIn,Conditions,Clouds,dailyrainin,SoftwareType,DateUTC
2013-07-15 00:04:00,73.7,70.9,30.15,North,-999,0.0,0.0,91,0.00,,,-99.99,WeatherLink 5.7,2013-07-15 04:04:00,
2013-07-15 00:09:00,73.5,70.7,30.15,North,-999,0.0,0.0,91,0.00,,,-99.99,WeatherLink 5.7,2013-07-15 04:09:00,
2013-07-15 00:14:00,73.3,70.8,30.15,North,-999,0.0,0.0,92,0.00,,,-99.99,WeatherLink 5.7,2013-07-15 04:14:00,
2013-07-15 00:19:00,73.3,70.8,30.14,North,-999,0.0,0.0,92,0.00,,,-99.99,WeatherLink 5.7,2013-07-15 04:19:00,
2013-07-15 00:24:00,73.3,70.8,30.14,North,-999,0.0,0.0,92,0.00,,,-99.99,WeatherLink 5.7,2013-07-15 04:24:00,
2013-07-15 00:34:00,73.2,70.7,30.14,North,-999,0.0,0.0,92,0.00,,,-99.99,WeatherLink 5.7,2013-07-15 04:34:00,
2013-07-15 00:39:00,73.2,71.1,30.14,North,-999,0.0,0.0,93,0.00,,,-99.99,WeatherLink 5.7,2013-07-15 04:39:00,
2013-07-15 00:44:00,73.0,70.9,30.14,North,-999,0.0,0.0,93,0.00,,,-99.99,WeatherLink 5.7,2013-07-15 04:44:00,
2013-07-15 00:49:00,73.0,70.9,30.14,North,-999,0.0,0.0,93,0.00,,,-99.99,WeatherLink 5.7,2013-07-15 04:49:00,
2013-07-15 00:59:00,72.8,71.0,30.14,North,-999,0.0,0.0,94,0.00,,,-99.99,WeatherLink 5.7,2013-07-15 04:59:00,
2013-07-15 01:09:00,72.8,71.0,30.14,North,-999,0.0,0.0,94,0.00,,,-99.99,WeatherLink 5.7,2013-07-15 05:09:00,
2013-07-15 01:19:00,72.7,70.9,30.14,North,-999,0.0,0.0,94,0.00,,,-99.99,WeatherLink 5.7,2013-07-15 05:19:00,
2013-07-15 01:29:00,72.5,70.7,30.14,North,-999,0.0,0.0,94,0.00,,,-99.99,WeatherLink 5.7,2013-07-15 05:29:00,
2013-07-15 01:34:00,72.3,70.8,30.14,North,-999,0.0,0.0,95,0.00,,,-99.99,WeatherLink 5.7,2013-07-15 05:34:00,
2013-07-15 01:39:00,72.3,70.8,30.14,North,-999,0.0,0.0,95,0.00,,,-99.99,WeatherLink 5.7,2013-07-15 05:39:00,
2013-07-15 01:49:00,72.3,70.8,30.14,North,-999,0.0,0.0,95,0.00,,,-99.99,WeatherLink 5.7,2013-07-15 05:49:00,
2013-07-15 01:59:00,72.3,70.8,30.14,North,-999,0.0,0.0,95,0.00,,,-99.99,WeatherLink 5.7,2013-07-15 05:59:00,
2013-07-15 02:09:00,72.3,70.8,30.13,North,-999,0.0,0.0,95,0.00,,,-99.99,WeatherLink 5.7,2013-07-15 06:09:00,
2013-07-15 02:19:00,72.5,71.3,30.13,North,-999,0.0,0.0,96,0.00,,,-99.99,WeatherLink 5.7,2013-07-15 06:19:00,
2013-07-15 02:29:00,72.5,71.3,30.13,North,-999,0.0,0.0,96,0.00,,,-99.99,WeatherLink 5.7,2013-07-15 06:29:00,
2013-07-15 02:34:00,72.5,71.3,30.13,North,-999,0.0,0.0,96,0.00,,,-99.99,WeatherLink 5.7,2013-07-15 06:34:00,
2013-07-15 02:44:00,72.5,71.3,30.13,North,-999,0.0,0.0,96,0.00,,,-99.99,WeatherLink 5.7,2013-07-15 06:44:00,
2013-07-15 02:54:00,72.3,71.1,30.13,North,-999,0.0,0.0,96,0.00,,,-99.99,WeatherLink 5.7,2013-07-15 06:54:00,
2013-07-15 02:59:00,72.1,70.9,30.13,North,-999,0.0,0.0,96,0.00,,,-99.99,WeatherLink 5.7,2013-07-15 06:59:00,
2013-07-15 03:09:00,71.8,70.6,30.12,North,-999,0.0,0.0,96,0.00,,,-99.99,WeatherLink 5.7,2013-07-15 07:09:00,
2013-07-15 03:19:00,71.6,70.4,30.12,North,-999,0.0,0.0,96,0.00,,,-99.99,WeatherLink 5.7,2013-07-15 07:19:00,
2013-07-15 03:29:00,71.6,70.4,30.12,North,-999,0.0,0.0,96,0.00,,,-99.99,WeatherLink 5.7,2013-07-15 07:29:00,
2013-07-15 03:39:00,71.5,70.3,30.12,North,-999,0.0,0.0,96,0.00,,,-99.99,WeatherLink 5.7,2013-07-15 07:39:00,
2013-07-15 03:49:00,71.3,70.1,30.12,North,-999,0.0,0.0,96,0.00,,,-99.99,WeatherLink 5.7,2013-07-15 07:49:00,
2013-07-15 03:59:00,71.3,70.1,30.12,North,-999,0.0,0.0,96,0.00,,,-99.99,WeatherLink 5.7,2013-07-15 07:59:00,
2013-07-15 04:09:00,71.1,69.9,30.12,North,-999,0.0,0.0,96,0.00,,,-99.99,WeatherLink 5.7,2013-07-15 08:09:00,
2013-07-15 04:19:00,71.1,69.9,30.13,North,-999,0.0,0.0,96,0.00,,,-99.99,WeatherLink 5.7,2013-07-15 08:19:00,
2013-07-15 04:29:00,70.9,69.7,30.13,North,-999,0.0,0.0,96,0.00,,,-99.99,WeatherLink 5.7,2013-07-15 08:29:00,
2013-07-15 04:39:00,70.8,69.6,30.13,North,-999,0.0,0.0,96,0.00,,,-99.99,WeatherLink 5.7,2013-07-15 08:39:00,
2013-07-15 04:49:00,70.6,69.4,30.13,North,-999,0.0,0.0,96,0.00,,,-99.99,WeatherLink 5.7,2013-07-15 08:49:00,
2013-07-15 04:59:00,70.6,69.4,30.13,North,-999,0.0,0.0,96,0.00,,,-99.99,WeatherLink 5.7,2013-07-15 08:59:00,
2013-07-15 05:04:00,70.6,69.4,30.13,North,-999,0.0,0.0,96,0.00,,,-99.99,WeatherLink 5.7,2013-07-15 09:04:00,
2013-07-15 05:14:00,70.4,69.2,30.13,North,-999,0.0,0.0,96,0.00,,,-99.99,WeatherLink 5.7,2013-07-15 09:14:00,
2013-07-15 05:24:00,70.4,69.2,30.13,North,-999,0.0,0.0,96,0.00,,,-99.99,WeatherLink 5.7,2013-07-15 09:24:00,
2013-07-15 05:29:00,70.3,69.1,30.13,North,-999,0.0,0.0,96,0.00,,,-99.99,WeatherLink 5.7,2013-07-15 09:29:00,
2013-07-15 05:39:00,70.1,68.9,30.13,North,-999,0.0,0.0,96,0.00,,,-99.99,WeatherLink 5.7,2013-07-15 09:39:00,
2013-07-15 05:44:00,69.9,68.7,30.13,North,-999,0.0,0.0,96,0.00,,,-99.99,WeatherLink 5.7,2013-07-15 09:44:00,
2013-07-15 05:54:00,69.9,68.7,30.13,North,-999,0.0,0.0,96,0.00,,,-99.99,WeatherLink 5.7,2013-07-15 09:54:00,
2013-07-15 05:59:00,69.9,68.7,30.13,North,-999,0.0,0.0,96,0.00,,,-99.99,WeatherLink 5.7,2013-07-15 09:59:00,
2013-07-15 06:09:00,69.9,68.7,30.13,North,-999,0.0,0.0,96,0.00,,,-99.99,WeatherLink 5.7,2013-07-15 10:09:00,
2013-07-15 06:19:00,69.9,69.0,30.13,North,-999,0.0,0.0,97,0.00,,,-99.99,WeatherLink 5.7,2013-07-15 10:19:00,
2013-07-15 06:29:00,70.3,69.4,30.13,North,-999,0.0,0.0,97,0.00,,,-99.99,WeatherLink 5.7,2013-07-15 10:29:00,
2013-07-15 06:34:00,70.3,69.4,30.14,North,-999,0.0,0.0,97,0.00,,,-99.99,WeatherLink 5.7,2013-07-15 10:34:00,
2013-07-15 06:45:00,70.6,69.7,30.14,North,-999,0.0,0.0,97,0.00,,,-99.99,WeatherLink 5.7,2013-07-15 10:45:00,
2013-07-15 06:54:00,71.1,70.2,30.14,North,-999,0.0,0.0,97,0.00,,,-99.99,WeatherLink 5.7,2013-07-15 10:54:00,
2013-07-15 07:04:00,71.6,70.7,30.14,North,-999,0.0,0.0,97,0.00,,,-99.99,WeatherLink 5.7,2013-07-15 11:04:00,
2013-07-15 07:14:00,72.1,71.2,30.14,North,-999,0.0,0.0,97,0.00,,,-99.99,WeatherLink 5.7,2013-07-15 11:14:00,
2013-07-15 07:19:00,72.3,71.4,30.14,North,-999,0.0,0.0,97,0.00,,,-99.99,WeatherLink 5.7,2013-07-15 11:19:00,
2013-07-15 07:29:00,72.3,71.4,30.14,North,-999,0.0,0.0,97,0.00,,,-99.99,WeatherLink 5.7,2013-07-15 11:29:00,
2013-07-15 07:39:00,72.7,71.5,30.14,WNW,292,0.0,2.0,96,0.00,,,-99.99,WeatherLink 5.7,2013-07-15 11:39:00,
2013-07-15 07:44:00,72.8,71.6,30.14,North,-999,0.0,0.0,96,0.00,,,-99.99,WeatherLink 5.7,2013-07-15 11:44:00,
2013-07-15 07:54:00,73.3,72.1,30.14,North,-999,0.0,0.0,96,0.00,,,-99.99,WeatherLink 5.7,2013-07-15 11:54:00,
2013-07-15 07:59:00,73.7,72.2,30.14,WNW,292,0.0,3.0,95,0.00,,,-99.99,WeatherLink 5.7,2013-07-15 11:59:00,
2013-07-15 08:09:00,74.4,72.6,30.14,WNW,292,0.0,1.0,94,0.00,,,-99.99,WeatherLink 5.7,2013-07-15 12:09:00,
2013-07-15 08:14:00,74.7,72.5,30.14,North,-999,0.0,0.0,93,0.00,,,-99.99,WeatherLink 5.7,2013-07-15 12:14:00,
2013-07-15 08:24:00,75.4,72.3,30.14,ENE,67,0.0,1.0,90,0.00,,,-99.99,WeatherLink 5.7,2013-07-15 12:24:00,
2013-07-15 08:34:00,76.3,71.8,30.14,NW,315,0.0,3.0,86,0.00,,,-99.99,WeatherLink 5.7,2013-07-15 12:34:00,
2013-07-15 08:39:00,76.8,71.6,30.14,NW,315,0.0,3.0,84,0.00,,,-99.99,WeatherLink 5.7,2013-07-15 12:39:00,
2013-07-15 08:49:00,77.9,72.3,30.14,WSW,247,0.0,1.0,83,0.00,,,-99.99,WeatherLink 5.7,2013-07-15 12:49:00,
2013-07-15 08:59:00,79.0,71.9,30.14,WNW,292,0.0,1.0,79,0.00,,,-99.99,WeatherLink 5.7,2013-07-15 12:59:00,
2013-07-15 09:04:00,79.4,71.9,30.14,WNW,292,0.0,1.0,78,0.00,,,-99.99,WeatherLink 5.7,2013-07-15 13:04:00,
2013-07-15 09:14:00,80.7,72.8,30.14,NNW,337,0.0,1.0,77,0.00,,,-99.99,WeatherLink 5.7,2013-07-15 13:14:00,
2013-07-15 09:24:00,81.8,71.9,30.13,North,-999,0.0,0.0,72,0.00,,,-99.99,WeatherLink 5.7,2013-07-15 13:24:00,
2013-07-15 09:39:00,82.8,72.0,30.13,NNW,337,0.0,1.0,70,0.00,,,-99.99,WeatherLink 5.7,2013-07-15 13:39:00,
2013-07-15 09:44:00,83.6,73.2,30.13,North,-999,0.0,0.0,71,0.00,,,-99.99,WeatherLink 5.7,2013-07-15 13:44:00,
2013-07-15 09:54:00,84.3,73.0,30.13,NW,315,1.0,3.0,69,0.00,,,-99.99,WeatherLink 5.7,2013-07-15 13:54:00,
2013-07-15 09:59:00,85.5,73.3,30.13,ESE,112,1.0,3.0,67,0.00,,,-99.99,WeatherLink 5.7,2013-07-15 13:59:00,
2013-07-15 10:09:00,87.4,72.8,30.12,East,90,0.0,2.0,62,0.00,,,-99.99,WeatherLink 5.7,2013-07-15 14:09:00,
2013-07-15 10:19:00,89.3,72.1,30.12,North,0,0.0,2.0,57,0.00,,,-99.99,WeatherLink 5.7,2013-07-15 14:19:00,
2013-07-15 10:29:00,91.0,72.0,30.12,NNW,337,1.0,3.0,54,0.00,,,-99.99,WeatherLink 5.7,2013-07-15 14:29:00,
2013-07-15 10:34:00,91.4,73.0,30.12,WNW,292,1.0,5.0,55,0.00,,,-99.99,WeatherLink 5.7,2013-07-15 14:34:00,
2013-07-15 10:44:00,92.1,72.5,30.12,North,0,1.0,3.0,53,0.00,,,-99.99,WeatherLink 5.7,2013-07-15 14:44:00,
2013-07-15 10:54:00,92.3,71.6,30.12,NNW,337,2.0,5.0,51,0.00,,,-99.99,WeatherLink 5.7,2013-07-15 14:54:00,
2013-07-15 10:59:00,92.5,72.3,30.12,NW,315,1.0,5.0,52,0.00,,,-99.99,WeatherLink 5.7,2013-07-15 14:59:00,
2013-07-15 11:09:00,93.2,73.0,30.12,NW,315,1.0,2.0,52,0.00,,,-99.99,WeatherLink 5.7,2013-07-15 15:09:00,
2013-07-15 11:14:00,93.6,72.7,30.12,WSW,247,0.0,2.0,51,0.00,,,-99.99,WeatherLink 5.7,2013-07-15 15:14:00,
2013-07-15 11:24:00,92.9,73.2,30.11,North,0,1.0,3.0,53,0.00,,,-99.99,WeatherLink 5.7,2013-07-15 15:24:00,
2013-07-15 11:34:00,92.7,73.1,30.11,West,270,1.0,3.0,53,0.00,,,-99.99,WeatherLink 5.7,2013-07-15 15:34:00,
2013-07-15 11:39:00,92.9,72.1,30.11,SW,225,1.0,2.0,51,0.00,,,-99.99,WeatherLink 5.7,2013-07-15 15:39:00,
2013-07-15 11:49:00,93.2,74.1,30.11,WSW,247,0.0,3.0,54,0.00,,,-99.99,WeatherLink 5.7,2013-07-15 15:49:00,
2013-07-15 11:54:00,93.2,72.4,30.11,NW,315,0.0,3.0,51,0.00,,,-99.99,WeatherLink 5.7,2013-07-15 15:54:00,
2013-07-15 12:00:00,92.9,73.8,30.11,WNW,292,1.0,2.0,54,0.00,,,-99.99,WeatherLink 5.7,2013-07-15 16:00:00,
2013-07-15 12:09:00,92.7,73.1,30.10,WSW,247,0.0,1.0,53,0.00,,,-99.99,WeatherLink 5.7,2013-07-15 16:09:00,
2013-07-15 12:14:00,92.3,73.2,30.10,North,0,1.0,3.0,54,0.00,,,-99.99,WeatherLink 5.7,2013-07-15 16:14:00,
2013-07-15 12:24:00,92.9,73.2,30.10,NW,315,0.0,2.0,53,0.00,,,-99.99,WeatherLink 5.7,2013-07-15 16:24:00,
2013-07-15 12:29:00,93.8,71.7,30.10,NNW,337,1.0,5.0,49,0.00,,,-99.99,WeatherLink 5.7,2013-07-15 16:29:00,
2013-07-15 12:39:00,94.7,72.0,30.09,WSW,247,1.0,2.0,48,0.00,,,-99.99,WeatherLink 5.7,2013-07-15 16:39:00,
2013-07-15 12:49:00,92.7,73.1,30.09,West,270,0.0,1.0,53,0.00,,,-99.99,WeatherLink 5.7,2013-07-15 16:49:00,
2013-07-15 12:54:00,91.8,73.9,30.09,West,270,1.0,2.0,56,0.00,,,-99.99,WeatherLink 5.7,2013-07-15 16:54:00,
2013-07-15 13:05:00,92.3,72.1,30.09,NW,315,1.0,5.0,52,0.00,,,-99.99,WeatherLink 5.7,2013-07-15 17:05:00,
2013-07-15 13:14:00,92.7,73.1,30.09,North,0,1.0,2.0,53,0.00,,,-99.99,WeatherLink 5.7,2013-07-15 17:14:00,
2013-07-15 13:24:00,93.8,71.1,30.09,NNW,337,0.0,3.0,48,0.00,,,-99.99,WeatherLink 5.7,2013-07-15 17:24:00,
2013-07-15 13:34:00,92.9,72.1,30.08,WSW,247,0.0,2.0,51,0.00,,,-99.99,WeatherLink 5.7,2013-07-15 17:34:00,
2013-07-15 13:39:00,92.7,71.3,30.08,NNW,337,0.0,2.0,50,0.00,,,-99.99,WeatherLink 5.7,2013-07-15 17:39:00,
2013-07-15 13:49:00,93.2,70.6,30.08,North,0,0.0,2.0,48,0.00,,,-99.99,WeatherLink 5.7,2013-07-15 17:49:00,
2013-07-15 13:59:00,93.8,72.3,30.08,NNW,337,0.0,3.0,50,0.00,,,-99.99,WeatherLink 5.7,2013-07-15 17:59:00,
2013-07-15 14:09:00,92.9,71.5,30.08,WSW,247,1.0,6.0,50,0.00,,,-99.99,WeatherLink 5.7,2013-07-15 18:09:00,
2013-07-15 14:15:00,92.3,72.1,30.08,NW,315,0.0,1.0,52,0.00,,,-99.99,WeatherLink 5.7,2013-07-15 18:15:00,
2013-07-15 14:24:00,91.6,71.5,30.08,NW,315,0.0,2.0,52,0.00,,,-99.99,WeatherLink 5.7,2013-07-15 18:24:00,
2013-07-15 14:30:00,91.8,71.7,30.08,North,0,1.0,3.0,52,0.00,,,-99.99,WeatherLink 5.7,2013-07-15 18:30:00,
2013-07-15 14:40:00,92.3,72.7,30.08,SSE,157,0.0,2.0,53,0.00,,,-99.99,WeatherLink 5.7,2013-07-15 18:40:00,
2013-07-15 14:49:00,92.7,70.7,30.07,WNW,292,1.0,5.0,49,0.00,,,-99.99,WeatherLink 5.7,2013-07-15 18:49:00,
2013-07-15 14:59:00,93.2,71.8,30.07,WNW,292,0.0,2.0,50,0.00,,,-99.99,WeatherLink 5.7,2013-07-15 18:59:00,
2013-07-15 15:09:00,92.5,72.9,30.07,North,-999,0.0,0.0,53,0.00,,,-99.99,WeatherLink 5.7,2013-07-15 19:09:00,
2013-07-15 15:14:00,91.6,70.9,30.07,NNW,337,0.0,2.0,51,0.00,,,-99.99,WeatherLink 5.7,2013-07-15 19:14:00,
2013-07-15 15:19:00,92.1,71.9,30.07,WNW,292,1.0,11.0,52,0.00,,,-99.99,WeatherLink 5.7,2013-07-15 19:19:00,
2013-07-15 15:29:00,92.7,70.7,30.07,WNW,292,1.0,3.0,49,0.00,,,-99.99,WeatherLink 5.7,2013-07-15 19:29:00,
2013-07-15 15:35:00,92.7,70.7,30.06,WNW,292,1.0,2.0,49,0.00,,,-99.99,WeatherLink 5.7,2013-07-15 19:35:00,
2013-07-15 15:40:00,92.3,71.0,30.06,NNW,337,0.0,2.0,50,0.00,,,-99.99,WeatherLink 5.7,2013-07-15 19:40:00,
2013-07-15 15:49:00,91.4,69.0,30.06,SSW,202,1.0,6.0,48,0.00,,,-99.99,WeatherLink 5.7,2013-07-15 19:49:00,
2013-07-15 15:59:00,91.0,71.5,30.06,North,-999,0.0,0.0,53,0.00,,,-99.99,WeatherLink 5.7,2013-07-15 19:59:00,
2013-07-15 16:04:00,90.3,71.9,30.06,North,-999,0.0,0.0,55,0.00,,,-99.99,WeatherLink 5.7,2013-07-15 20:04:00,
2013-07-15 16:10:00,89.9,72.1,30.06,North,-999,0.0,0.0,56,0.00,,,-99.99,WeatherLink 5.7,2013-07-15 20:10:00,
2013-07-15 16:19:00,89.3,73.6,30.05,North,-999,0.0,0.0,60,0.00,,,-99.99,WeatherLink 5.7,2013-07-15 20:19:00,
2013-07-15 16:24:00,89.3,72.6,30.05,North,-999,0.0,0.0,58,0.00,,,-99.99,WeatherLink 5.7,2013-07-15 20:24:00,
2013-07-15 16:29:00,89.5,73.3,30.05,North,-999,0.0,0.0,59,0.00,,,-99.99,WeatherLink 5.7,2013-07-15 20:29:00,
2013-07-15 16:40:00,90.7,70.7,30.05,WNW,292,0.0,1.0,52,0.00,,,-99.99,WeatherLink 5.7,2013-07-15 20:40:00,
2013-07-15 16:49:00,91.4,72.4,30.05,North,-999,0.0,0.0,54,0.00,,,-99.99,WeatherLink 5.7,2013-07-15 20:49:00,
2013-07-15 16:59:00,91.2,71.1,30.05,North,-999,0.0,0.0,52,0.00,,,-99.99,WeatherLink 5.7,2013-07-15 20:59:00,
2013-07-15 17:04:00,91.4,73.0,30.05,North,-999,0.0,0.0,55,0.00,,,-99.99,WeatherLink 5.7,2013-07-15 21:04:00,
2013-07-15 17:14:00,91.8,71.7,30.05,North,0,0.0,2.0,52,0.00,,,-99.99,WeatherLink 5.7,2013-07-15 21:14:00,
2013-07-15 17:24:00,91.6,71.5,30.04,North,-999,0.0,0.0,52,0.00,,,-99.99,WeatherLink 5.7,2013-07-15 21:24:00,
2013-07-15 17:29:00,91.4,71.9,30.04,North,-999,0.0,0.0,53,0.00,,,-99.99,WeatherLink 5.7,2013-07-15 21:29:00,
2013-07-15 17:39:00,91.0,72.6,30.03,North,-999,0.0,0.0,55,0.00,,,-99.99,WeatherLink 5.7,2013-07-15 21:39:00,
2013-07-15 17:45:00,90.7,72.8,30.03,North,-999,0.0,0.0,56,0.00,,,-99.99,WeatherLink 5.7,2013-07-15 21:45:00,
2013-07-15 17:50:00,90.5,72.7,30.03,North,0,0.0,3.0,56,0.00,,,-99.99,WeatherLink 5.7,2013-07-15 21:50:00,
2013-07-15 17:59:00,89.9,71.0,30.03,North,-999,0.0,0.0,54,0.00,,,-99.99,WeatherLink 5.7,2013-07-15 21:59:00,
2013-07-15 18:04:00,89.9,71.6,30.03,North,-999,0.0,0.0,55,0.00,,,-99.99,WeatherLink 5.7,2013-07-15 22:04:00,
2013-07-15 18:15:00,89.5,72.3,30.03,North,-999,0.0,0.0,57,0.00,,,-99.99,WeatherLink 5.7,2013-07-15 22:15:00,
2013-07-15 18:20:00,89.3,72.6,30.03,North,-999,0.0,0.0,58,0.00,,,-99.99,WeatherLink 5.7,2013-07-15 22:20:00,
2013-07-15 18:29:00,88.8,72.6,30.03,North,-999,0.0,0.0,59,0.00,,,-99.99,WeatherLink 5.7,2013-07-15 22:29:00,
2013-07-15 18:39:00,88.4,72.7,30.03,North,-999,0.0,0.0,60,0.00,,,-99.99,WeatherLink 5.7,2013-07-15 22:39:00,
2013-07-15 18:44:00,88.2,73.5,30.03,North,-999,0.0,0.0,62,0.00,,,-99.99,WeatherLink 5.7,2013-07-15 22:44:00,
2013-07-15 18:54:00,87.6,73.4,30.03,North,-999,0.0,0.0,63,0.00,,,-99.99,WeatherLink 5.7,2013-07-15 22:54:00,
2013-07-15 19:00:00,87.4,73.7,30.03,North,-999,0.0,0.0,64,0.00,,,-99.99,WeatherLink 5.7,2013-07-15 23:00:00,
2013-07-15 19:05:00,86.7,73.5,30.03,North,-999,0.0,0.0,65,0.00,,,-99.99,WeatherLink 5.7,2013-07-15 23:05:00,
2013-07-15 19:14:00,85.9,73.7,30.03,North,-999,0.0,0.0,67,0.00,,,-99.99,WeatherLink 5.7,2013-07-15 23:14:00,
2013-07-15 19:20:00,85.5,73.7,30.03,North,-999,0.0,0.0,68,0.00,,,-99.99,WeatherLink 5.7,2013-07-15 23:20:00,
2013-07-15 19:29:00,84.9,73.6,30.03,North,-999,0.0,0.0,69,0.00,,,-99.99,WeatherLink 5.7,2013-07-15 23:29:00,
2013-07-15 19:34:00,84.5,73.6,30.04,North,-999,0.0,0.0,70,0.00,,,-99.99,WeatherLink 5.7,2013-07-15 23:34:00,
2013-07-15 19:39:00,84.3,73.4,30.04,North,-999,0.0,0.0,70,0.00,,,-99.99,WeatherLink 5.7,2013-07-15 23:39:00,
2013-07-15 19:50:00,83.8,73.8,30.04,North,-999,0.0,0.0,72,0.00,,,-99.99,WeatherLink 5.7,2013-07-15 23:50:00,
2013-07-15 19:59:00,83.4,74.2,30.04,North,-999,0.0,0.0,74,0.00,,,-99.99,WeatherLink 5.7,2013-07-15 23:59:00,
2013-07-15 20:09:00,82.6,74.3,30.04,North,-999,0.0,0.0,76,0.00,,,-99.99,WeatherLink 5.7,2013-07-16 00:09:00,
2013-07-15 20:19:00,82.0,73.7,30.04,North,-999,0.0,0.0,76,0.00,,,-99.99,WeatherLink 5.7,2013-07-16 00:19:00,
2013-07-15 20:24:00,81.6,73.7,30.04,North,-999,0.0,0.0,77,0.00,,,-99.99,WeatherLink 5.7,2013-07-16 00:24:00,
2013-07-15 20:34:00,81.1,73.6,30.04,North,-999,0.0,0.0,78,0.00,,,-99.99,WeatherLink 5.7,2013-07-16 00:34:00,
2013-07-15 20:44:00,80.5,73.4,30.04,North,-999,0.0,0.0,79,0.00,,,-99.99,WeatherLink 5.7,2013-07-16 00:44:00,
2013-07-15 20:54:00,79.9,72.8,30.04,North,-999,0.0,0.0,79,0.00,,,-99.99,WeatherLink 5.7,2013-07-16 00:54:00,
2013-07-15 20:59:00,79.8,73.1,30.04,North,-999,0.0,0.0,80,0.00,,,-99.99,WeatherLink 5.7,2013-07-16 00:59:00,
2013-07-15 21:09:00,79.4,73.1,30.05,North,-999,0.0,0.0,81,0.00,,,-99.99,WeatherLink 5.7,2013-07-16 01:09:00,
2013-07-15 21:19:00,78.8,72.8,30.05,North,-999,0.0,0.0,82,0.00,,,-99.99,WeatherLink 5.7,2013-07-16 01:19:00,
2013-07-15 21:29:00,78.5,72.5,30.05,North,-999,0.0,0.0,82,0.00,,,-99.99,WeatherLink 5.7,2013-07-16 01:29:00,
2013-07-15 21:34:00,78.1,72.2,30.05,North,-999,0.0,0.0,82,0.00,,,-99.99,WeatherLink 5.7,2013-07-16 01:34:00,
2013-07-15 21:44:00,77.7,72.1,30.05,North,-999,0.0,0.0,83,0.00,,,-99.99,WeatherLink 5.7,2013-07-16 01:44:00,
2013-07-15 21:50:00,77.6,72.4,30.06,North,-999,0.0,0.0,84,0.00,,,-99.99,WeatherLink 5.7,2013-07-16 01:50:00,
2013-07-15 22:00:00,77.2,72.3,30.06,North,-999,0.0,0.0,85,0.00,,,-99.99,WeatherLink 5.7,2013-07-16 02:00:00,
2013-07-15 22:05:00,77.0,72.1,30.06,North,-999,0.0,0.0,85,0.00,,,-99.99,WeatherLink 5.7,2013-07-16 02:05:00,
2013-07-15 22:15:00,76.7,72.2,30.06,North,-999,0.0,0.0,86,0.00,,,-99.99,WeatherLink 5.7,2013-07-16 02:15:00,
2013-07-15 22:25:00,76.5,72.0,30.06,North,-999,0.0,0.0,86,0.00,,,-99.99,WeatherLink 5.7,2013-07-16 02:25:00,
2013-07-15 22:34:00,76.1,71.9,30.06,North,-999,0.0,0.0,87,0.00,,,-99.99,WeatherLink 5.7,2013-07-16 02:34:00,
2013-07-15 22:40:00,76.0,71.8,30.06,North,-999,0.0,0.0,87,0.00,,,-99.99,WeatherLink 5.7,2013-07-16 02:40:00,
2013-07-15 22:49:00,75.8,71.7,30.06,North,-999,0.0,0.0,87,0.00,,,-99.99,WeatherLink 5.7,2013-07-16 02:49:00,
2013-07-15 22:59:00,75.4,70.9,30.06,North,-999,0.0,0.0,86,0.00,,,-99.99,WeatherLink 5.7,2013-07-16 02:59:00,
2013-07-15 23:09:00,75.1,70.3,30.06,North,-999,0.0,0.0,85,0.00,,,-99.99,WeatherLink 5.7,2013-07-16 03:09:00,
2013-07-15 23:19:00,75.1,70.6,30.06,North,-999,0.0,0.0,86,0.00,,,-99.99,WeatherLink 5.7,2013-07-16 03:19:00,
2013-07-15 23:24:00,74.9,70.8,30.06,North,-999,0.0,0.0,87,0.00,,,-99.99,WeatherLink 5.7,2013-07-16 03:24:00,
2013-07-15 23:34:00,74.6,70.5,30.06,North,-999,0.0,0.0,87,0.00,,,-99.99,WeatherLink 5.7,2013-07-16 03:34:00,
2013-07-15 23:40:00,74.6,70.1,30.06,NW,315,0.0,1.0,86,0.00,,,-99.99,WeatherLink 5.7,2013-07-16 03:40:00,
2013-07-15 23:49:00,74.4,69.9,30.06,North,-999,0.0,0.0,86,0.00,,,-99.99,WeatherLink 5.7,2013-07-16 03:49:00,
2013-07-15 23:54:00,74.4,69.6,30.06,North,-999,0.0,0.0,85,0.00,,,-99.99,WeatherLink 5.7,2013-07-16 03:54:00,